Regional Weather Roundup
Issued by NWS Sterling, VA

Home | Current Version | Previous Version | Graphics & Text | Print | Product List | Glossary On
Versions: 1 2 3 4 5 6 7 8 9 10 11 12 13 14 15 16 17 18 19 20 21 22 23 24 25 26 27 28 29 30 31 32 33 34 35 36 37 38 39 40 41 42 43 44 45 46 47 48
000
ASUS41 KLWX 050110
RWRLWX

REGIONAL WEATHER ROUNDUP
NATIONAL WEATHER SERVICE BALTIMORE MD/WASHINGTON DC
900 PM EDT SAT JUL 04 2015

Note: "FAIR" indicates few or no clouds below 12,000 feet
with no significant weather and/or obstructions to visibility.
 TC=TEMPERATURE CELSIUS

 * =Non NWS site. Station does not report precipitation (e.g. rain,
    snow, etc.), thunder, or fog.

DCZ001-MDZ009-015-VAZ040>042-051-053>054-050200-
WASHINGTON METRO

CITY           SKY/WX    TMP DP  RH WIND       PRES   REMARKS
WASHINGTON NAT MOCLDY    76  71  85 CALM      29.97R
DULLES         MOCLDY    71  70  96 CALM      29.98R
ANDREWS AFB    PTCLDY    71  71  99 CALM      29.97R FOG
FT BELVOIR     FOG       70  68  94 SE1       29.98R VSB 1
QUANTICO       PTCLDY    74  70  87 NW3       29.98R
LEESBURG*      MOCLDY    73  72  94 N6        30.00R
GAITHERSBURG*  MOCLDY    70  66  88 CALM      30.03R

$$

MDZ006>007-011-014-050200-
BALTIMORE METRO

CITY           SKY/WX    TMP DP  RH WIND       PRES   REMARKS
BWI AIRPORT    CLOUDY    72  67  84 N3        29.97R
MD SCIENCE CTR   N/A     74  67  78 MISG      29.97R
MARTIN STATE   MOCLDY    72  70  94 CALM      29.99R
ANNAPOLIS      MOCLDY    74  69  85 N3        29.97R
FORT MEADE*    MOCLDY    70  66  88 CALM      29.99R

$$

MDZ012-015-019>023-050200-
MARYLAND EASTERN SHORE

CITY           SKY/WX    TMP DP  RH WIND       PRES   REMARKS
OCEAN CITY     MOCLDY    72  69  90 E5        29.96
SALISBURY      RAIN      69  69 100 N3        29.97R FOG
BAY BRIDGE AP*   N/A     72  70  94 NE3       29.97R

$$

MDZ017>025-050200-
SOUTHERN MARYLAND

CITY           SKY/WX    TMP DP  RH WIND       PRES   REMARKS
PATUXENT RIVER CLOUDY    72  70  93 NE3       29.96R
ST INIGOES     NOT AVBL
LEONARDTOWN*   CLOUDY    70  68  94 CALM      29.98R

$$

MDZ003>005-050200-
NORTH CENTRAL MARYLAND

CITY           SKY/WX    TMP DP  RH WIND       PRES   REMARKS
FREDERICK*     CLOUDY    72  70  94 N3        30.02R
HAGERSTOWN APT PTCLDY    70  63  78 NE5       29.99R
WESTMINSTER*   MOCLDY    70  66  88 CALM      30.01R FOG

$$

MDZ501>502-050200-
WESTERN MARYLAND

CITY           SKY/WX    TMP DP  RH WIND       PRES   REMARKS
OAKLAND*       MOCLDY    64 N/A N/A NW3       30.09R
CUMBERLAND*    MOCLDY    77  63  61 CALM      30.02R

$$

VAZ025>031-050200-
SHENANDOAH VALLEY

CITY           SKY/WX    TMP DP  RH WIND       PRES   REMARKS
WINCHESTER*    CLOUDY    73  68  83 CALM      30.00R
FRONT ROYAL*   FAIR      70  68  94 CALM      29.98R
LURAY*         FAIR      73  73 100 N5        30.00R
NEW MARKET*    MOCLDY    70  67  92 CALM      29.98R
STAUNTON*      PTCLDY    76  66  71 CALM      30.03R
WAYNESBORO*    MOCLDY    73  65  75 NW3       30.02R

$$

WVZ021-048>050-054>055-050200-
EASTERN WEST VIRGINIA PANHANDLE

CITY           SKY/WX    TMP DP  RH WIND       PRES   REMARKS
MARTINSBURG    MOCLDY    72  66  81 N3        29.99R
PETERSBURG*    MOCLDY    71  64  78 N5        30.01R

$$

VAZ036>039-050-050200-
CENTRAL FOOTHILLS

CITY           SKY/WX    TMP DP  RH WIND       PRES   REMARKS
CHARLOTTESVILL MOCLDY    73  68  84 NE3       29.99R
CULPEPER*        N/A     68  68  99 CALM      30.00R FOG
ORANGE*        PTCLDY    72  70  94 CALM      30.00R
GORDONSVILLE*  FAIR      70  70 100 CALM      29.98R
WARRENTON*     FAIR      71  70  99 CALM      29.98R

$$

VAZ055>057-050200-
NORTH AND CENTRAL PIEDMONT

CITY           SKY/WX    TMP DP  RH WIND       PRES   REMARKS
FREDERICKSBRG* CLEAR     76  72  88 N5        29.96R
STAFFORD*      PTCLDY    70  69  95 CALM      30.02R

$$

NCZ024-NYZ072-PAZ021-071-VAZ022-071-050200-
OTHER REGIONAL OBSERVATIONS

CITY           SKY/WX    TMP DP  RH WIND       PRES   REMARKS
NEW YORK CITY  MOCLDY    72  52  49 CALM      30.00R
PHILADELPHIA   CLOUDY    71  61  70 E8        29.99R
PITTSBURGH     PTCLDY    74  57  55 N5        30.01R
ROANOKE        MOCLDY    75  68  78 NW5       30.03R
RICHMOND       MOCLDY    72  68  88 CALM      29.97R
RALEIGH        MOCLDY    79  69  71 SW8       30.00R

$$

ANZ530>537-050200-
MARINE OBSERVATIONS

STATION/POSITION TIME  TEMP    WIND        PRES
                       AIR SEA DIR/SP/G
                 (UTC) (F)     (DEG/KT/KT) (MB)
THOMAS PT LIGHT  0100   75 77   40/  7/  8 1015.2R
BALT KEY BRIDGE  0000   74      30/  5/  5 1014.4R
COVE POINT       0000   73     360/  5/  7 1014.4R
LEWISETTA        0000   70 80   10/  9/ 14 1014.6R
SOLOMONS ISLAND  0000      80                N/A
PINEY POINT      0000          150/  3/  4   N/A

$$



USA.gov is the U.S. government's official web portal to all federal, state and local government web resources and services.